CW8014 Weather Reports


Display with metric or nautical units.
time (UTC)temp
F
wind
direction
speed
MPH
gust
MPH
rain 1hr
in
rain 24hr
in
rain mn
in
humidity
%
barometer
mb
20260502214411 56 15 0.0 1.0 0.00 0.00 0.00 86 1014.3
20260502213414 56 15 1.0 2.0 0.00 0.00 0.00 86 1014.2
20260502212411 56 15 1.0 2.0 0.00 0.00 0.00 85 1014.1
20260502211411 56 360 1.0 3.0 0.00 0.00 0.00 84 1014.2
20260502210411 57 355 2.0 6.0 0.00 0.00 0.00 83 1014.1
20260502205411 57 30 3.0 5.0 0.00 0.00 0.00 83 1014.1
20260502204411 58 24 4.0 8.0 0.00 0.00 0.00 83 1014.1
20260502203411 58 17 3.0 5.0 0.00 0.00 0.00 84 1014.3
20260502202411 59 350 4.0 8.0 0.00 0.00 0.00 85 1014.4
20260502201410 59 355 3.0 5.0 0.00 0.00 0.00 86 1014.4
20260502200412 60 15 2.0 5.0 0.00 0.00 0.00 87 1014.4
20260502195410 60 31 2.0 5.0 0.00 0.00 0.00 87 1014.4
20260502194410 60 351 2.0 5.0 0.00 0.00 0.00 86 1014.3
20260502193411 61 360 2.0 4.0 0.00 0.00 0.00 85 1014.2
20260502192410 62 11 2.0 5.0 0.00 0.00 0.00 84 1014.2
20260502191411 62 30 3.0 5.0 0.00 0.00 0.00 84 1014.1
20260502190410 63 346 4.0 8.0 0.00 0.00 0.00 82 1014.1
20260502185410 64 360 4.0 6.0 0.00 0.00 0.00 81 1013.9
20260502184414 65 14 4.0 8.0 0.00 0.00 0.00 79 1013.9
20260502182411 68 337 4.0 9.0 0.00 0.00 0.00 72 1013.8
20260502181411 70 336 7.0 12.0 0.00 0.00 0.00 67 1013.9
20260502180411 71 290 2.0 3.0 0.00 0.00 0.00 62 1013.8
20260502170410 74 281 4.0 11.0 0.00 0.00 0.00 57 1014.0
20260502162410 74 260 3.0 8.0 0.00 0.00 0.00 56 1014.3
20260502151410 76 281 5.0 11.0 0.00 0.00 0.00 48 1014.8
20260502150410 76 267 6.0 11.0 0.00 0.00 0.00 47 1014.8
20260502130401 78 298 5.0 11.0 0.00 0.00 0.00 45 1015.4
20260502123401 79 213 8.0 19.0 0.00 0.00 0.00 43 1015.8
20260502122401 79 229 7.0 14.0 0.00 0.00 0.00 40 1015.8
20260502120409 80 228 6.0 15.0 0.00 0.00 0.00 37 1016.4
20260502115406 80 148 7.0 14.0 0.00 0.00 0.00 37 1016.5
20260502111406 78 241 4.0 10.0 0.00 0.00 0.00 32 1016.8
20260502110409 78 202 5.0 10.0 0.00 0.00 0.00 34 1016.9
20260502105406 77 261 5.0 12.0 0.00 0.00 0.00 32 1016.9
20260502104406 77 145 5.0 11.0 0.00 0.00 0.00 33 1017.0
20260502103405 76 245 4.0 11.0 0.00 0.00 0.00 32 1017.1
20260502102408 77 174 7.0 17.0 0.00 0.00 0.00 31 1017.3
20260502101406 76 174 4.0 11.0 0.00 0.00 0.00 34 1017.3
20260502100405 76 229 5.0 12.0 0.00 0.00 0.00 35 1017.5
20260502091405 72 161 6.0 10.0 0.00 0.00 0.00 41 1017.8
20260502090405 72 147 6.0 12.0 0.00 0.00 0.00 42 1017.9
20260502071405 65 151 4.0 12.0 0.00 0.00 0.00 53 1018.6
20260502070405 65 164 4.0 11.0 0.00 0.00 0.00 52 1018.7
20260502065405 64 143 3.0 7.0 0.00 0.00 0.00 55 1018.7
20260502064405 61 169 4.0 10.0 0.00 0.00 0.00 57 1018.6
20260502063405 61 170 5.0 10.0 0.00 0.00 0.00 58 1018.6
20260502062405 60 150 3.0 7.0 0.00 0.00 0.00 60 1018.6
20260502061405 59 153 5.0 10.0 0.00 0.00 0.00 59 1018.7
20260502060405 59 156 4.0 8.0 0.00 0.00 0.00 61 1018.7
20260502055405 58 159 5.0 10.0 0.00 0.00 0.00 62 1018.7
20260502054405 57 180 5.0 8.0 0.00 0.00 0.00 62 1018.8
20260502053406 56 170 5.0 10.0 0.00 0.00 0.00 64 1018.7
20260502052406 56 185 5.0 9.0 0.00 0.00 0.00 64 1018.9
20260502051406 55 163 5.0 10.0 0.00 0.00 0.00 66 1018.8
20260502050405 54 164 4.0 7.0 0.00 0.00 0.00 67 1018.9
20260502045405 54 175 4.0 6.0 0.00 0.00 0.00 68 1018.9
20260502044405 53 163 4.0 9.0 0.00 0.00 0.00 69 1018.9
20260502042405 52 162 4.0 7.0 0.00 0.00 0.00 71 1018.9
20260502040405 49 165 3.0 5.0 0.00 0.00 0.00 78 1019.0
20260502035405 48 119 1.0 2.0 0.00 0.00 0.00 79 1019.1
20260502034408 49 152 1.0 2.0 0.00 0.00 0.00 76 1019.1
20260502033405 49 151 2.0 3.0 0.00 0.00 0.00 76 1019.1
20260502032405 49 146 1.0 3.0 0.00 0.00 0.00 76 1019.1
20260502031405 50 151 2.0 4.0 0.00 0.00 0.00 76 1019.3
20260502030405 50 153 2.0 3.0 0.00 0.00 0.00 77 1019.4
20260502025406 49 159 2.0 5.0 0.00 0.00 0.00 78 1019.4
20260502024405 48 160 2.0 4.0 0.00 0.00 0.00 80 1019.4
20260502022405 46 157 2.0 4.0 0.00 0.00 0.00 85 1019.7
20260502021405 46 155 2.0 4.0 0.00 0.00 0.00 85 1019.7
20260502020405 46 146 2.0 4.0 0.00 0.00 0.00 85 1019.8
20260502014405 47 148 2.0 4.0 0.00 0.00 0.00 85 1020.1
20260502013405 47 146 2.0 4.0 0.00 0.00 0.00 85 1020.2
20260502012405 47 147 2.0 3.0 0.00 0.00 0.00 84 1020.3
20260502011408 48 148 1.0 1.0 0.00 0.00 0.00 84 1020.4
20260502005410 49 149 1.0 2.0 0.00 0.00 0.00 82 1020.6
20260502004410 49 148 1.0 2.0 0.00 0.00 0.00 82 1020.7
20260502003410 49 149 1.0 2.0 0.00 0.00 0.00 82 1020.8
20260502001410 50 149 0.0 1.0 0.00 0.00 0.00 79 1021.0
20260502000413 51 149 1.0 2.0 0.00 0.00 0.00 78 1021.0
20260501235410 51 149 0.0 1.0 0.00 0.00 0.00 77 1021.0
20260501234410 52 149 2.0 3.0 0.00 0.00 0.00 73 1021.2
20260501233410 53 150 2.0 3.0 0.00 0.00 0.00 71 1021.2
20260501232410 55 148 1.0 3.0 0.00 0.00 0.00 68 1021.2
20260501231410 56 148 1.0 3.0 0.00 0.00 0.00 67 1021.2
20260501230410 56 148 2.0 3.0 0.00 0.00 0.00 66 1021.3
20260501225411 56 150 3.0 5.0 0.00 0.00 0.00 66 1021.3
20260501224410 56 140 2.0 4.0 0.00 0.00 0.00 66 1021.3
20260501223410 56 130 2.0 4.0 0.00 0.00 0.00 65 1021.4
20260501222410 56 130 3.0 5.0 0.00 0.00 0.00 66 1021.3
20260501221410 56 130 3.0 4.0 0.00 0.00 0.00 67 1021.4
20260501220410 56 119 2.0 3.0 0.00 0.00 0.00 66 1021.4
20260501215410 57 124 2.0 4.0 0.00 0.00 0.00 65 1021.5